User: anonymous   Login
Location: El Abasto
(10.3790°N, 67.5897°W)
Time: 19:06:14
(UTC+00:00)
Language:

Landsat 7 - Orbit

View from above orbital plane
View from above orbital plane
View from above satellite
View from above satellite

Ground track
Ground track

The orbit data is extracted from the following two-line orbital elements,

1 25682U 99020A   24198.54936236  .00000877  00000-0  18864-3 0  9997
2 25682  97.8864 223.9509 0001206  97.3701  20.0582 14.60750532343485
Epoch (UTC): 16 July 2024 13:11:04
Eccentricity: 0.0001206
inclination: 97.8864°
perigee height: 690 km
apogee height: 691 km
right ascension of ascending node: 223.9509°
argument of perigee: 97.3701°
revolutions per day: 14.60750532
mean anomaly at epoch: 20.0582°
orbit number at epoch: 34348

The dashed part of the orbit path shows where the satellite is in the earth's shadow,  

DLR